{"data":{"norad_id":58100,"epoch":"2026-09-20T11:52:39.455904Z","epoch_age_seconds":140919,"freshness":"FRESH","line1":"1 58100U 23161D   26263.49490111 -.00000752  00000+0 -11107-4 0  9994","line2":"2 58100  53.1615 337.3795 0001663 109.1015 251.0168 15.34386203164297","mean_motion":15.34386203,"eccentricity":0.0001663,"inclination_deg":53.1615,"raan_deg":337.3795,"arg_perigee_deg":109.1015,"mean_anomaly_deg":251.0168,"bstar":-1.1107e-5,"rev_number":16429,"period_min":93.848601948098,"perigee_km":461.60660955441,"apogee_km":463.88188665753,"semimajor_km":6840.881248106,"source":"CELESTRAK","updated_at":"2026-09-21T09:00:33.786601Z"}}